TimeMDT,TemperatureF,Dew PointF,Humidity,Sea Level PressureIn,VisibilityMPH,Wind Direction,Wind SpeedMPH,Gust SpeedMPH,PrecipitationIn,Events,Conditions,WindDirDegrees,DateUTC
12:35 AM,57.6,33.4,40,30.16,10.0,SW,6.9,-,N/A,,Clear,230,2012-10-01 06:35:00
12:55 AM,59.2,34.3,39,30.16,10.0,SW,8.1,-,N/A,,Clear,230,2012-10-01 06:55:00
1:35 AM,57.2,37.0,47,30.17,10.0,West,4.6,-,N/A,,Clear,260,2012-10-01 07:35:00
1:55 AM,56.1,37.8,50,30.18,10.0,WSW,6.9,-,N/A,,Clear,240,2012-10-01 07:55:00
2:15 AM,56.8,38.3,50,30.18,10.0,Calm,Calm,-,N/A,,Clear,0,2012-10-01 08:15:00
2:35 AM,57.0,39.2,51,30.18,10.0,South,6.9,-,N/A,,Clear,180,2012-10-01 08:35:00
3:15 AM,59.0,39.4,48,30.19,10.0,South,5.8,-,N/A,,Clear,170,2012-10-01 09:15:00
3:55 AM,58.3,39.6,50,30.20,10.0,NW,4.6,-,N/A,,Clear,310,2012-10-01 09:55:00
4:15 AM,56.3,39.4,53,30.20,10.0,Calm,Calm,-,N/A,,Clear,0,2012-10-01 10:15:00
5:15 AM,53.8,39.4,58,30.21,10.0,WNW,3.5,-,N/A,,Clear,290,2012-10-01 11:15:00
5:35 AM,51.4,36.7,57,30.21,10.0,WNW,5.8,-,N/A,,Clear,300,2012-10-01 11:35:00
5:55 AM,51.4,35.6,55,30.22,10.0,WNW,8.1,-,N/A,,Clear,300,2012-10-01 11:55:00
6:15 AM,51.8,34.9,53,30.23,10.0,WNW,5.8,-,N/A,,Clear,300,2012-10-01 12:15:00
6:35 AM,52.3,34.9,51,30.23,10.0,WNW,8.1,-,N/A,,Clear,300,2012-10-01 12:35:00
6:55 AM,52.7,34.7,50,30.24,10.0,NNW,6.9,-,N/A,,Clear,330,2012-10-01 12:55:00
7:15 AM,50.9,35.4,55,30.25,10.0,NW,5.8,-,N/A,,Clear,320,2012-10-01 13:15:00
7:35 AM,50.9,37.0,59,30.26,10.0,NE,5.8,-,N/A,,Clear,40,2012-10-01 13:35:00
7:55 AM,54.9,39.2,56,30.27,10.0,Calm,Calm,-,N/A,,Clear,0,2012-10-01 13:55:00
8:15 AM,59.5,39.7,48,30.28,10.0,North,3.5,-,N/A,,Clear,10,2012-10-01 14:15:00
8:35 AM,61.7,39.2,43,30.28,10.0,NNW,6.9,-,N/A,,Clear,340,2012-10-01 14:35:00
8:55 AM,60.8,39.0,45,30.28,10.0,WNW,4.6,-,N/A,,Clear,300,2012-10-01 14:55:00
9:15 AM,63.0,39.0,41,30.29,10.0,North,3.5,-,N/A,,Clear,10,2012-10-01 15:15:00
9:35 AM,65.1,39.0,38,30.29,10.0,Calm,Calm,-,N/A,,Clear,0,2012-10-01 15:35:00
10:15 AM,68.7,40.1,35,30.29,10.0,East,4.6,-,N/A,,Clear,100,2012-10-01 16:15:00
10:35 AM,69.3,40.3,35,30.29,10.0,NE,4.6,-,N/A,,Clear,50,2012-10-01 16:35:00
10:55 AM,70.9,40.3,33,30.29,10.0,Calm,Calm,-,N/A,,Clear,0,2012-10-01 16:55:00
11:15 AM,71.1,39.4,32,30.28,10.0,Calm,Calm,-,N/A,,Clear,0,2012-10-01 17:15:00
11:35 AM,73.0,39.6,30,30.28,10.0,Calm,Calm,-,N/A,,Clear,0,2012-10-01 17:35:00
12:15 PM,75.7,36.9,24,30.26,10.0,Calm,Calm,-,N/A,,Clear,0,2012-10-01 18:15:00
12:35 PM,75.9,36.7,24,30.26,10.0,Calm,Calm,-,N/A,,Clear,0,2012-10-01 18:35:00
1:15 PM,77.2,34.9,22,30.25,10.0,Calm,Calm,-,N/A,,Clear,0,2012-10-01 19:15:00
1:55 PM,78.4,34.5,20,30.22,10.0,WNW,3.5,-,N/A,,Clear,290,2012-10-01 19:55:00
2:15 PM,78.8,34.3,20,30.21,10.0,North,8.1,-,N/A,,Clear,350,2012-10-01 20:15:00
2:35 PM,79.3,34.2,20,30.21,10.0,SSW,5.8,-,N/A,,Clear,200,2012-10-01 20:35:00
2:55 PM,80.2,32.9,18,30.20,10.0,SSW,6.9,-,N/A,,Clear,200,2012-10-01 20:55:00
3:15 PM,79.5,32.5,18,30.20,10.0,Calm,Calm,-,N/A,,Clear,0,2012-10-01 21:15:00
3:35 PM,80.1,32.0,17,30.19,10.0,SSW,6.9,-,N/A,,Clear,200,2012-10-01 21:35:00
3:55 PM,79.9,31.3,17,30.19,10.0,Calm,Calm,-,N/A,,Clear,0,2012-10-01 21:55:00
4:15 PM,81.1,30.7,16,30.18,10.0,West,3.5,-,N/A,,Clear,260,2012-10-01 22:15:00
4:35 PM,79.3,29.1,16,30.18,10.0,Calm,Calm,-,N/A,,Clear,0,2012-10-01 22:35:00
4:55 PM,79.9,29.3,16,30.18,10.0,Calm,Calm,-,N/A,,Clear,0,2012-10-01 22:55:00
5:15 PM,79.7,29.5,16,30.17,10.0,South,3.5,-,N/A,,Clear,180,2012-10-01 23:15:00
5:35 PM,79.2,29.3,16,30.16,10.0,SW,3.5,-,N/A,,Clear,230,2012-10-01 23:35:00
5:55 PM,79.0,29.8,17,30.16,10.0,West,5.8,-,N/A,,Clear,280,2012-10-01 23:55:00
6:15 PM,78.1,29.7,17,30.16,10.0,Calm,Calm,-,N/A,,Clear,0,2012-10-02 00:15:00
6:35 PM,76.5,30.6,19,30.15,10.0,Calm,Calm,-,N/A,,Clear,0,2012-10-02 00:35:00
6:55 PM,73.4,30.9,21,30.15,10.0,SSW,4.6,-,N/A,,Clear,200,2012-10-02 00:55:00
7:15 PM,71.6,31.5,23,30.15,10.0,South,3.5,-,N/A,,Clear,170,2012-10-02 01:15:00
7:35 PM,70.0,32.0,25,30.15,10.0,SE,5.8,-,N/A,,Clear,130,2012-10-02 01:35:00
7:55 PM,67.1,32.0,27,30.16,10.0,South,4.6,-,N/A,,Clear,180,2012-10-02 01:55:00
8:15 PM,66.2,32.0,28,30.16,10.0,South,5.8,-,N/A,,Clear,170,2012-10-02 02:15:00
8:35 PM,64.0,32.0,30,30.16,10.0,South,6.9,-,N/A,,Clear,170,2012-10-02 02:35:00
8:55 PM,64.8,31.3,29,30.16,10.0,South,5.8,-,N/A,,Clear,170,2012-10-02 02:55:00
9:15 PM,63.9,31.5,30,30.16,10.0,South,5.8,-,N/A,,Clear,170,2012-10-02 03:15:00
9:35 PM,63.7,30.9,29,30.17,10.0,SSE,5.8,-,N/A,,Clear,160,2012-10-02 03:35:00
9:55 PM,61.2,31.1,32,30.17,10.0,SSW,5.8,-,N/A,,Clear,200,2012-10-02 03:55:00
10:15 PM,59.9,31.1,34,30.18,10.0,South,5.8,-,N/A,,Clear,180,2012-10-02 04:15:00
10:35 PM,61.9,31.1,31,30.18,10.0,Calm,Calm,-,N/A,,Clear,0,2012-10-02 04:35:00
10:55 PM,62.8,31.1,30,30.18,10.0,ESE,9.2,-,N/A,,Clear,120,2012-10-02 04:55:00
11:15 PM,64.4,34.7,33,30.19,10.0,SSE,10.4,-,N/A,,Clear,150,2012-10-02 05:15:00
11:35 PM,65.1,36.9,35,30.19,10.0,SE,12.7,-,N/A,,Clear,140,2012-10-02 05:35:00